This is the latest recevied weather packets stored in our database for station/object EA7OC-10. If no packets are shown the sender has not sent any weather packets the latest 10 day(s).
| Time | Temp. | Humidity | Pressure | Rain* | Wind** | Luminosity | Snow |
|---|---|---|---|---|---|---|---|
| 1787973777 | 18.33° C | 29% | 1019.3 hPa | - | - | - | - |
| 1787972877 | 18.89° C | 29% | 1019.3 hPa | - | - | - | - |
| 1787971977 | 18.33° C | 29% | 1019.3 hPa | - | - | - | - |
| 1787971077 | 18.89° C | 28% | 1019.3 hPa | - | - | - | - |
| 1787970177 | 19.44° C | 28% | 1019.3 hPa | - | - | - | - |
| 1787969277 | 19.44° C | 28% | 1019.2 hPa | - | - | - | - |
| 1787968372 | 20° C | 28% | 1019.3 hPa | - | - | - | - |
| 1787967472 | 20.56° C | 28% | 1019.2 hPa | - | - | - | - |
| 1787966567 | 20.56° C | 28% | 1019.2 hPa | - | - | - | - |
| 1787965667 | 20.56° C | 28% | 1019.3 hPa | - | - | - | - |
| 1787964767 | 21.11° C | 28% | 1019.3 hPa | - | - | - | - |
| 1787963900 | 21.67° C | 28% | 1019.4 hPa | - | - | - | - |
| 1787963867 | 21.67° C | 28% | 1019.4 hPa | - | - | - | - |
| 1787962962 | 21.67° C | 28% | 1019.4 hPa | - | - | - | - |
| 1787962062 | 22.22° C | 28% | 1019.4 hPa | - | - | - | - |
| 1787961162 | 22.78° C | 28% | 1019.4 hPa | - | - | - | - |
| 1787960262 | 23.89° C | 28% | 1019.4 hPa | - | - | - | - |
| 1787959362 | 24.44° C | 28% | 1019.5 hPa | - | - | - | - |
| 1787958462 | 25° C | 28% | 1019.6 hPa | - | - | - | - |
| 1787957562 | 25° C | 29% | 1019.6 hPa | - | - | - | - |
| 1787956662 | 25° C | 28% | 1019.6 hPa | - | - | - | - |
| 1787955762 | 26.11° C | 28% | 1019.6 hPa | - | - | - | - |
| 1787954861 | 27.22° C | 28% | 1019.4 hPa | - | - | - | - |
| 1787953961 | 27.78° C | 28% | 1019.4 hPa | - | - | - | - |
| 1787953061 | 28.33° C | 28% | 1019.3 hPa | - | - | - | - |
* Rain since midnight (hover to see other rain measurements)
** Current wind speed in m/s (hover to see current wind gust speed)